�N����,����,�~����,�C��,���x,�C��,����,���ϕ���,�ő�u�ԕ���,�ő厞����,���˗�,�I�_���x,�n�����x,�ő啗���N��,DTYPE
"23/04/06","00:10",0.2,12.8,95.7,1014.2,302.6,1.6,2.0,317.4,0.00,12.2,14.0,"00:09:44",1
"23/04/06","00:20",0.0,12.8,95.8,1014.2,307.9,1.5,2.0,330.0,0.00,12.2,14.2,"00:15:44",1
"23/04/06","00:30",0.0,12.7,95.9,1014.5,310.3,1.0,1.7,323.6,0.00,12.1,14.4,"00:24:48",1
"23/04/06","00:40",0.0,12.7,96.0,1014.0,318.6,1.0,1.3,324.7,0.00,12.1,14.4,"00:39:28",1
"23/04/06","00:50",0.0,12.7,96.1,1013.8,305.4,1.0,1.3,314.9,0.00,12.1,14.3,"00:44:16",1
"23/04/06","01:00",0.2,12.6,96.1,1014.2,299.5,0.8,1.2,313.4,0.00,12.0,14.2,"00:54:24",1
"23/04/06","01:10",0.0,12.6,96.3,1013.8,316.4,1.2,1.6,320.3,0.00,12.1,14.2,"01:08:24",1
"23/04/06","01:20",0.2,12.7,96.4,1013.8,311.3,1.3,1.8,335.3,0.00,12.2,14.2,"01:11:12",1
"23/04/06","01:30",0.0,12.7,96.5,1013.8,280.2,1.5,1.9,264.2,0.00,12.2,14.3,"01:27:54",1
"23/04/06","01:40",0.0,12.7,96.6,1013.3,277.6,1.3,1.7,260.5,0.00,12.2,14.3,"01:30:32",1
"23/04/06","01:50",0.0,12.7,96.7,1013.3,281.1,1.3,2.0,322.2,0.00,12.2,14.5,"01:42:32",1
"23/04/06","02:00",0.0,12.7,96.8,1013.5,293.6,1.6,2.4,303.1,0.00,12.2,14.2,"01:50:58",1
"23/04/06","02:10",0.0,12.7,96.8,1013.5,290.3,1.2,1.7,268.7,0.00,12.2,14.2,"02:00:48",1
"23/04/06","02:20",0.2,12.7,96.9,1013.5,308.7,1.5,2.4,311.8,0.00,12.3,13.9,"02:19:52",1
"23/04/06","02:30",0.0,12.6,97.0,1013.3,317.0,2.0,2.7,318.3,0.00,12.2,14.2,"02:22:02",1
"23/04/06","02:40",0.0,12.7,97.0,1013.0,318.3,1.2,1.8,339.4,0.00,12.3,14.2,"02:31:06",1
"23/04/06","02:50",0.0,12.7,97.1,1012.8,321.2,1.2,1.4,320.4,0.00,12.3,14.0,"02:41:42",1
"23/04/06","03:00",0.0,12.6,97.2,1013.0,302.7,1.0,1.3,318.6,0.00,12.2,14.2,"02:52:56",1
"23/04/06","03:10",0.0,12.6,97.2,1012.6,306.1,1.2,1.7,311.7,0.00,12.2,14.1,"03:01:52",1
"23/04/06","03:20",0.0,12.6,97.3,1012.8,290.4,1.2,2.0,303.6,0.00,12.2,14.1,"03:18:48",1
"23/04/06","03:30",0.0,12.6,97.3,1012.6,293.7,1.1,1.3,301.6,0.00,12.2,14.1,"03:23:44",1
"23/04/06","03:40",0.0,12.6,97.4,1012.6,293.2,1.1,1.4,321.2,0.00,12.2,14.1,"03:38:56",1
"23/04/06","03:50",0.0,12.6,97.4,1012.8,320.2,1.2,1.7,336.0,0.00,12.2,14.2,"03:44:16",1
"23/04/06","04:00",0.0,12.6,97.4,1012.6,289.4,1.0,1.2,296.9,0.00,12.2,14.0,"03:56:22",1
"23/04/06","04:10",0.0,12.6,97.5,1012.8,304.5,0.8,1.1,317.6,0.00,12.3,14.0,"04:02:56",1
"23/04/06","04:20",0.0,12.6,97.5,1012.8,294.8,1.2,1.4,312.7,0.00,12.3,14.0,"04:15:12",1
"23/04/06","04:30",0.0,12.6,97.6,1012.8,310.4,1.3,1.9,311.1,0.00,12.3,14.1,"04:21:20",1
"23/04/06","04:40",0.0,12.7,97.7,1012.6,324.7,1.2,1.7,325.0,0.00,12.4,13.9,"04:33:36",1
"23/04/06","04:50",0.0,12.6,97.7,1012.6,306.9,1.2,1.7,323.6,0.00,12.3,14.0,"04:44:16",1
"23/04/06","05:00",0.0,12.7,97.8,1012.3,299.3,1.1,1.9,316.1,0.00,12.4,13.8,"04:50:24",1
"23/04/06","05:10",0.0,12.7,97.8,1012.3,299.3,1.3,1.9,307.4,0.00,12.4,13.9,"05:07:28",1
"23/04/06","05:20",0.0,12.6,97.9,1012.6,307.1,1.5,2.0,322.3,0.00,12.3,13.8,"05:18:56",1
"23/04/06","05:30",0.0,12.7,97.9,1012.3,299.8,1.3,1.7,310.3,0.00,12.4,13.9,"05:29:12",1
"23/04/06","05:40",0.0,12.7,97.9,1012.6,307.2,1.3,1.8,328.1,0.00,12.4,13.8,"05:39:28",1
"23/04/06","05:50",0.0,12.7,98.0,1012.8,329.3,1.6,2.0,333.3,0.00,12.4,13.9,"05:43:44",1
"23/04/06","06:00",0.0,12.9,97.5,1012.6,284.3,1.3,1.9,269.0,0.00,12.6,13.9,"05:52:56",1
"23/04/06","06:10",0.0,12.7,97.9,1012.8,289.5,1.3,1.7,283.2,0.00,12.4,13.7,"06:01:52",1
"23/04/06","06:20",0.0,12.7,98.0,1012.8,318.0,1.5,2.7,323.7,0.00,12.4,13.8,"06:18:56",1
"23/04/06","06:30",0.0,12.9,97.5,1012.3,326.7,1.2,1.8,332.9,0.00,12.6,13.8,"06:20:40",1
"23/04/06","06:40",0.0,12.8,98.0,1012.8,327.8,1.5,2.0,334.8,0.00,12.5,13.9,"06:35:20",1
"23/04/06","06:50",0.0,13.0,97.6,1013.3,299.7,1.3,1.8,263.0,0.00,12.7,13.9,"06:47:28",1
"23/04/06","07:00",0.0,12.9,98.0,1012.8,262.9,1.5,2.0,261.8,0.00,12.6,13.9,"06:54:56",1
"23/04/06","07:10",0.0,13.1,97.6,1013.0,312.8,1.3,1.9,324.9,0.00,12.8,13.7,"07:08:16",1
"23/04/06","07:20",0.0,13.1,98.1,1013.0,323.5,1.6,2.2,335.5,0.00,12.8,14.2,"07:16:24",1
"23/04/06","07:30",0.0,13.4,97.6,1012.8,305.5,1.3,1.9,332.2,0.03,13.1,14.0,"07:22:24",1
"23/04/06","07:40",0.0,13.4,98.1,1012.3,283.1,1.3,1.7,263.1,0.04,13.1,14.1,"07:31:44",1
"23/04/06","07:50",0.0,13.6,97.6,1012.8,284.3,1.2,1.7,294.2,0.03,13.3,14.0,"07:46:16",1
"23/04/06","08:00",0.0,13.6,98.0,1012.8,291.1,1.5,2.1,292.8,0.02,13.3,13.9,"07:54:32",1
"23/04/06","08:10",0.0,13.9,97.6,1012.6,279.9,1.0,1.6,267.0,0.02,13.6,13.8,"08:04:24",1
"23/04/06","08:20",0.0,13.9,98.0,1012.8,314.3,1.3,1.8,311.8,0.02,13.6,14.0,"08:14:48",1
"23/04/06","08:30",0.0,14.1,97.4,1012.3,317.6,1.5,2.1,315.9,0.01,13.7,13.9,"08:20:24",1
"23/04/06","08:40",0.0,13.9,97.9,1012.6,313.2,1.3,2.0,334.4,0.02,13.6,13.7,"08:35:10",1
"23/04/06","08:50",0.0,14.1,98.0,1012.6,317.9,1.2,1.6,326.4,0.05,13.8,13.8,"08:40:16",1
"23/04/06","09:00",0.0,14.6,97.5,1012.6,328.3,1.5,1.8,343.0,0.10,14.2,13.9,"08:55:24",1
"23/04/06","09:10",0.0,14.8,97.7,1012.6,276.2,0.7,1.3,285.5,0.12,14.5,13.9,"09:01:58",1
"23/04/06","09:20",0.0,15.0,97.6,1012.3,257.2,0.6,1.0,252.1,0.12,14.7,13.9,"09:14:40",1
"23/04/06","09:30",0.0,15.2,97.7,1012.3,254.4,0.7,1.3,256.8,0.14,14.9,14.0,"09:21:48",1
"23/04/06","09:40",0.0,15.2,97.7,1012.3,263.8,0.6,1.4,306.6,0.08,14.9,13.9,"09:39:04",1
"23/04/06","09:50",0.0,14.8,97.4,1012.1,318.0,1.6,2.4,329.4,0.09,14.4,13.9,"09:42:24",1
"23/04/06","10:00",0.0,15.0,97.3,1012.1,278.7,1.2,2.4,260.6,0.10,14.6,13.9,"09:54:24",1
"23/04/06","10:10",0.0,14.9,96.7,1012.3,310.3,1.7,2.7,317.5,0.13,14.4,14.0,"10:08:08",1
"23/04/06","10:20",0.0,15.2,96.2,1012.6,314.5,1.7,2.4,314.8,0.11,14.6,14.1,"10:14:32",1
"23/04/06","10:30",0.0,15.2,95.8,1012.3,296.5,1.7,2.9,320.6,0.09,14.6,14.0,"10:23:36",1
"23/04/06","10:40",0.0,15.3,95.3,1012.3,282.1,1.7,2.7,263.0,0.07,14.6,14.1,"10:32:24",1
"23/04/06","10:50",0.0,15.8,94.6,1012.3,292.9,1.5,2.4,331.1,0.19,15.0,14.0,"10:48:16",1
"23/04/06","11:00",0.0,16.5,93.6,1012.3,304.0,1.3,2.2,319.8,0.23,15.5,14.0,"10:51:04",1
"23/04/06","11:10",0.0,16.8,92.0,1012.3,274.1,0.8,1.8,330.2,0.13,15.5,14.3,"11:02:16",1
"23/04/06","11:20",0.0,16.8,90.6,1012.1,226.8,0.6,1.7,237.1,0.10,15.3,14.0,"11:14:00",1
"23/04/06","11:30",0.0,17.0,88.8,1011.9,259.6,0.7,1.3,249.1,0.11,15.2,14.0,"11:21:28",1
"23/04/06","11:40",0.0,17.0,86.9,1011.9,252.5,0.7,1.4,255.6,0.11,14.8,14.2,"11:38:40",1
"23/04/06","11:50",0.0,17.1,85.3,1011.6,335.9,1.3,2.1,338.3,0.08,14.7,14.3,"11:49:36",1
"23/04/06","12:00",0.0,17.1,84.3,1011.6,341.0,1.0,2.2,346.7,0.07,14.5,14.4,"11:50:24",1
"23/04/06","12:10",0.0,17.6,84.0,1011.6,13.8,0.6,1.7,341.9,0.22,14.9,14.4,"12:02:24",1
"23/04/06","12:20",0.0,18.2,82.5,1011.2,242.4,0.5,1.4,125.1,0.26,15.2,14.4,"12:12:16",1
"23/04/06","12:30",0.0,18.4,81.1,1011.2,310.1,1.2,2.1,325.4,0.21,15.1,14.3,"12:25:36",1
"23/04/06","12:40",0.0,18.2,79.7,1011.2,284.0,1.3,2.7,319.9,0.17,14.7,14.3,"12:36:00",1
"23/04/06","12:50",0.0,18.4,79.2,1010.7,253.3,0.7,1.7,248.5,0.14,14.8,14.4,"12:41:36",1
"23/04/06","13:00",0.0,18.5,79.3,1010.9,269.2,0.6,1.7,260.2,0.10,14.9,14.4,"12:59:54",1
"23/04/06","13:10",0.0,18.4,79.1,1010.7,289.5,1.3,2.7,321.5,0.15,14.8,14.4,"13:03:52",1
"23/04/06","13:20",0.0,18.8,78.7,1010.4,319.6,1.3,2.1,322.2,0.25,15.1,14.5,"13:13:36",1
"23/04/06","13:30",0.0,19.4,77.7,1010.0,311.5,1.3,2.1,325.3,0.26,15.4,14.5,"13:21:52",1
"23/04/06","13:40",0.0,19.6,76.6,1010.0,282.0,1.2,2.7,325.1,0.19,15.4,14.4,"13:34:08",1
"23/04/06","13:50",0.0,19.8,76.1,1009.5,254.0,0.7,2.0,279.2,0.18,15.5,14.5,"13:48:08",1
"23/04/06","14:00",0.0,19.6,75.3,1009.5,294.5,1.7,3.2,307.8,0.14,15.2,14.7,"13:54:00",1
"23/04/06","14:10",0.0,19.3,76.0,1009.3,336.5,2.1,3.4,345.7,0.08,15.0,14.7,"14:01:20",1
"23/04/06","14:20",0.0,19.4,76.4,1009.0,310.2,1.3,2.6,330.5,0.07,15.2,14.7,"14:15:12",1
"23/04/06","14:30",0.0,19.6,76.6,1009.3,330.7,1.7,2.6,332.1,0.07,15.4,14.8,"14:25:12",1
"23/04/06","14:40",0.0,19.5,76.0,1009.0,337.8,1.6,2.7,346.9,0.07,15.2,14.7,"14:32:48",1
"23/04/06","14:50",0.0,19.9,75.9,1008.8,329.1,0.7,1.7,314.8,0.07,15.6,14.8,"14:41:12",1
"23/04/06","15:00",0.0,20.2,75.7,1008.3,322.9,0.6,1.6,351.5,0.09,15.8,14.8,"14:50:56",1
"23/04/06","15:10",0.0,20.0,75.0,1008.1,70.4,0.8,2.1,121.1,0.11,15.5,14.8,"15:04:08",1
"23/04/06","15:20",0.0,21.4,73.7,1008.1,2.5,1.1,2.6,121.9,0.39,16.6,15.0,"15:12:24",1
"23/04/06","15:30",0.0,22.2,69.7,1007.8,349.4,1.1,3.1,350.7,0.27,16.4,14.9,"15:23:52",1
"23/04/06","15:40",0.0,21.4,69.0,1007.8,112.3,1.6,3.3,246.0,0.10,15.5,14.8,"15:38:48",1
"23/04/06","15:50",0.0,20.9,70.8,1007.6,149.1,1.2,2.0,125.8,0.06,15.4,15.2,"15:46:56",1
"23/04/06","16:00",0.0,20.6,72.8,1007.6,118.8,1.8,3.3,118.3,0.06,15.6,15.3,"15:53:12",1
"23/04/06","16:10",0.0,20.5,73.8,1007.6,79.9,1.2,3.1,118.6,0.07,15.7,14.9,"16:02:08",1
"23/04/06","16:20",0.0,20.3,74.3,1007.8,24.1,0.6,2.0,71.4,0.03,15.6,15.0,"16:10:24",1
"23/04/06","16:30",0.0,20.3,74.4,1007.6,19.5,0.6,1.3,111.2,0.02,15.6,15.2,"16:21:04",1
"23/04/06","16:40",0.0,20.3,74.9,1007.4,11.9,0.5,1.7,351.8,0.02,15.7,15.1,"16:32:00",1
"23/04/06","16:50",0.2,20.3,75.2,1007.1,326.1,0.6,1.3,342.5,0.04,15.8,15.2,"16:48:32",1
"23/04/06","17:00",0.0,20.3,75.1,1007.6,327.2,1.1,1.8,320.0,0.02,15.8,15.1,"16:54:16",1
"23/04/06","17:10",0.0,20.2,75.7,1008.1,319.8,1.3,1.9,338.8,0.01,15.8,15.2,"17:01:28",1
"23/04/06","17:20",0.0,20.0,76.1,1008.3,307.9,1.3,2.2,328.3,0.00,15.7,15.2,"17:11:28",1
"23/04/06","17:30",0.0,20.3,76.9,1007.6,335.6,1.1,1.8,340.2,0.00,16.2,15.3,"17:27:12",1
"23/04/06","17:40",0.0,19.8,79.5,1007.8,324.9,1.8,2.1,341.7,0.00,16.2,15.2,"17:31:28",1
"23/04/06","17:50",0.0,19.5,80.9,1008.3,313.5,1.7,2.4,328.0,0.00,16.2,15.2,"17:44:16",1
"23/04/06","18:00",0.0,19.2,81.7,1008.1,326.8,1.0,1.8,339.9,0.00,16.0,15.4,"17:55:52",1
"23/04/06","18:10",0.0,19.2,83.0,1008.1,83.5,0.8,3.1,35.3,0.00,16.3,15.1,"18:07:52",1
"23/04/06","18:20",0.0,18.9,83.5,1008.6,331.7,2.0,2.9,343.7,0.00,16.1,15.2,"18:14:08",1
"23/04/06","18:30",0.0,18.8,83.5,1008.6,337.6,1.0,1.6,343.1,0.00,16.0,15.2,"18:20:08",1
"23/04/06","18:40",0.0,18.8,83.6,1008.1,342.1,1.1,2.4,336.5,0.00,16.0,15.4,"18:36:56",1
"23/04/06","18:50",0.0,18.7,84.1,1008.6,292.8,0.8,2.1,0.9,0.00,16.0,15.2,"18:47:36",1
"23/04/06","19:00",0.0,18.4,84.3,1008.6,302.0,2.1,3.4,21.7,0.00,15.7,15.4,"18:52:08",1
"23/04/06","19:10",0.0,18.6,84.3,1008.6,318.9,2.2,3.5,329.5,0.00,15.9,15.3,"19:08:56",1
"23/04/06","19:20",0.0,18.5,84.7,1008.6,351.4,1.1,2.4,321.1,0.00,15.9,15.2,"19:19:28",1
"23/04/06","19:30",0.0,18.2,85.5,1008.8,348.5,1.1,2.0,350.6,0.00,15.8,15.3,"19:26:08",1
"23/04/06","19:40",0.0,17.9,86.3,1008.8,337.6,1.1,1.8,327.2,0.00,15.6,15.3,"19:34:40",1
"23/04/06","19:50",0.0,17.7,87.0,1009.0,281.7,0.7,1.8,319.6,0.00,15.6,15.5,"19:40:24",1
"23/04/06","20:00",0.0,17.6,87.8,1008.8,313.0,0.7,1.7,332.6,0.00,15.6,15.4,"19:56:00",1
"23/04/06","20:10",0.0,17.7,88.5,1009.3,325.6,1.1,1.8,346.5,0.00,15.8,15.3,"20:08:24",1
"23/04/06","20:20",0.0,17.5,89.1,1009.5,318.1,1.0,1.6,300.1,0.00,15.7,15.4,"20:13:12",1
"23/04/06","20:30",0.0,17.4,89.6,1009.5,335.7,1.2,1.9,336.2,0.00,15.7,15.3,"20:21:04",1
"23/04/06","20:40",0.0,17.3,90.0,1009.5,347.6,1.3,2.4,341.5,0.00,15.7,15.3,"20:38:00",1
"23/04/06","20:50",0.0,17.3,90.4,1009.5,324.2,1.6,2.6,354.3,0.00,15.8,15.2,"20:40:16",1
"23/04/06","21:00",0.0,17.1,90.7,1009.5,304.8,1.1,1.6,325.8,0.00,15.6,15.1,"20:58:40",1
"23/04/06","21:10",0.0,17.1,91.0,1009.5,278.1,0.8,1.2,274.0,0.00,15.7,15.2,"21:05:52",1
"23/04/06","21:20",0.0,17.2,91.3,1009.5,293.3,1.5,2.0,288.4,0.00,15.8,15.4,"21:19:52",1
"23/04/06","21:30",0.0,17.1,91.6,1009.5,301.6,1.6,2.4,334.3,0.00,15.8,15.3,"21:29:36",1
"23/04/06","21:40",0.0,16.9,91.8,1010.0,306.2,1.6,2.2,331.9,0.00,15.6,15.2,"21:30:24",1
"23/04/06","21:50",0.0,16.9,92.1,1009.5,309.2,1.2,1.8,313.4,0.00,15.6,15.2,"21:45:52",1
"23/04/06","22:00",0.0,16.8,92.4,1009.5,313.0,1.7,2.8,316.6,0.00,15.6,15.2,"21:52:16",1
"23/04/06","22:10",0.0,16.7,92.6,1009.5,299.2,0.7,2.1,334.8,0.00,15.5,15.3,"22:00:48",1
"23/04/06","22:20",0.0,16.6,92.8,1009.0,274.0,1.1,1.3,271.7,0.00,15.5,15.2,"22:17:52",1
"23/04/06","22:30",0.0,16.7,93.0,1009.3,272.9,1.5,2.1,264.7,0.00,15.6,15.2,"22:24:40",1
"23/04/06","22:40",0.0,16.7,93.2,1009.3,313.4,1.5,2.2,353.9,0.00,15.6,15.2,"22:39:28",1
"23/04/06","22:50",0.0,16.5,93.4,1008.8,295.4,1.3,2.0,335.1,0.00,15.5,15.4,"22:43:20",1
"23/04/06","23:00",0.0,16.6,93.7,1009.3,309.1,2.3,3.5,344.0,0.00,15.6,15.3,"22:57:04",1
"23/04/06","23:10",0.0,16.5,93.9,1009.0,313.7,1.5,3.3,309.2,0.00,15.6,15.1,"23:00:24",1
"23/04/06","23:20",0.0,16.4,94.1,1009.0,295.7,1.3,1.7,325.7,0.00,15.5,15.2,"23:14:48",1
"23/04/06","23:30",0.0,16.4,94.2,1009.5,311.5,1.7,2.6,323.8,0.00,15.5,15.2,"23:25:20",1
"23/04/06","23:40",0.0,16.4,94.3,1009.0,322.6,1.2,2.1,317.1,0.00,15.5,15.2,"23:30:24",1
"23/04/06","23:50",0.0,16.3,94.5,1009.0,292.1,1.2,1.7,317.1,0.00,15.5,15.1,"23:42:16",1
"23/04/06","24:00",0.0,16.4,94.7,1009.5,320.0,1.5,2.2,327.5,0.00,15.6,15.2,"23:54:40",1
